This is the latest recevied weather packets stored in our database for station/object KD5BIG-13. If no packets are shown the sender has not sent any weather packets the latest 10 day(s).
| Time | Temp. | Humidity | Pressure | Rain* | Wind** | Luminosity | Snow |
|---|---|---|---|---|---|---|---|
| 1777496397 | 26.11° C | 84% | 1013.8 hPa | 0 mm | - | 56 W/m² | - |
| 1777496094 | 26.11° C | 83% | 1014.4 hPa | 0 mm | - | 75 W/m² | - |
| 1777495790 | 26.67° C | 82% | 1014.7 hPa | 0 mm | - | 35 W/m² | - |
| 1777495487 | 26.67° C | 82% | 1014.9 hPa | 0 mm | - | 45 W/m² | - |
| 1777495183 | 26.11° C | 81% | 1014.8 hPa | 0 mm | - | 46 W/m² | - |
| 1777494880 | 26.67° C | 82% | 1014.9 hPa | 0 mm | - | 36 W/m² | - |
| 1777494577 | 26.67° C | 81% | 1015 hPa | 0 mm | - | 47 W/m² | - |
| 1777494275 | 26.67° C | 80% | 1014.7 hPa | 0 mm | - | 62 W/m² | - |
| 1777493971 | 26.67° C | 80% | 1014.4 hPa | 0 mm | - | 88 W/m² | - |
| 1777493669 | 26.67° C | 79% | 1014.5 hPa | 0 mm | - | 72 W/m² | - |
| 1777493366 | 26.67° C | 79% | 1014.7 hPa | 0 mm | - | 81 W/m² | - |
| 1777493062 | 26.67° C | 79% | 1014.5 hPa | 0 mm | - | 108 W/m² | - |
| 1777492760 | 26.67° C | 78% | 1014.8 hPa | 0 mm | - | 81 W/m² | - |
| 1777492455 | 27.22° C | 79% | 1014.6 hPa | 0 mm | - | 97 W/m² | - |
| 1777492152 | 27.22° C | 78% | 1014.8 hPa | 0 mm | - | 117 W/m² | - |
| 1777491849 | 27.22° C | 79% | 1015 hPa | 0 mm | - | 135 W/m² | - |
| 1777491545 | 27.22° C | 77% | 1014.7 hPa | 0 mm | - | 204 W/m² | - |
| 1777491243 | 27.22° C | 78% | 1015 hPa | 0 mm | - | 193 W/m² | - |
| 1777490938 | 27.78° C | 76% | 1015.5 hPa | 0 mm | - | 177 W/m² | - |
| 1777490634 | 27.78° C | 76% | 1015.3 hPa | 0 mm | - | 316 W/m² | - |
| 1777490330 | 27.78° C | 76% | 1015.3 hPa | 0 mm | - | 287 W/m² | - |
| 1777490029 | 27.78° C | 76% | 1015.7 hPa | 0 mm | - | 248 W/m² | - |
| 1777489726 | 27.78° C | 77% | 1015.7 hPa | 0 mm | - | 237 W/m² | - |
| 1777489423 | 27.78° C | 76% | 1015.7 hPa | 0 mm | - | 321 W/m² | - |
| 1777489120 | 27.78° C | 76% | 1015.9 hPa | 0 mm | - | 211 W/m² | - |
* Rain latest hour (hover to see other rain measurements)
** Current wind speed in m/s (hover to see current wind gust speed)